Carmi, IL

5:25 AM CST on February 08, 2016 (GMT -0600)
Carmi Municipal

Weather History for KCUL - June, 2013

Change the Weather History Date:

Saturday, June 15, 2013

  Actual Average (KEVV) Record (KEVV)
Temperature  
Mean Temperature 76 °F 75 °F  
Max Temperature 90 °F 86 °F 100 °F (1952)
Min Temperature 61 °F 64 °F 49 °F (1917)
Degree Days  
Heating Degree Days 0 0  
Month to date heating degree days 4  
Since 1 June heating degree days 4  
Since 1 July heating degree days 4545  
Cooling Degree Days 10 10  
Month to date cooling degree days 123  
Year to date cooling degree days 258  
Since 1 June cooling degree days 123  
Growing Degree Days 26 (Base 50)    
Moisture  
Dew Point 60 °F    
Average Humidity 61    
Maximum Humidity 94    
Minimum Humidity 28    
Precipitation  
Precipitation 0.00 in 0.11 in 4.71 in (1900)
Month to date precipitation 2.07  
Year to date precipitation 22.31  
Sea Level Pressure  
Sea Level Pressure 30.03 in    
Wind  
Wind Speed 3 mph (South)    
Max Wind Speed 16 mph    
Max Gust Speed 21 mph    
Visibility 10 miles    
Events      
T = Trace of Precipitation, MM = Missing Value Source: NWS Daily Summary

Daily Weather History Graph

Daily Weather History Graph

Search for Another Location

Airport or City:

Trip Planner

Search our weather history database for the weather conditions in past years. The results will help you decide how hot, cold, wet, or windy it might be!

Date:

Astronomy

Jun. 15, 2013 Rise Set
Actual Time 5:29 AM CDT 8:17 PM CDT
Civil Twilight 4:57 AM CDT 8:48 PM CDT
Nautical Twilight 4:18 AM CDT 9:28 PM CDT
Astronomical Twilight 3:33 AM CDT 10:13 PM CDT
Moon 11:58 AM CDT (6/15) No Moon Set
Length of Visible Light 15h 51m
Length of Day
14h 48m
Waxing Crescent, 40% of the Moon is Illuminated
Jun 15
Waxing Crescent
Jun 16
First Quarter
Jun 23
Full
Jun 29
Last Quarter
Jul 8
New

Hourly Weather History & Observations

Time (CDT) Temp. Heat Index Dew Point Humidity Pressure Visibility Wind Dir Wind Speed Gust Speed Precip Events Conditions
12:15 AM 66.6 °F - 63.7 °F 90% 30.05 in 10.0 mi Calm Calm - N/A   Clear
12:35 AM 66.6 °F - 63.5 °F 90% 30.05 in 10.0 mi Calm Calm - N/A   Clear
12:55 AM 65.7 °F - 63.5 °F 93% 30.05 in 10.0 mi Calm Calm - N/A   Clear
1:15 AM 65.7 °F - 63.5 °F 93% 30.04 in 7.0 mi Calm Calm - N/A   Clear
1:35 AM 65.3 °F - 63.1 °F 93% 30.05 in 10.0 mi Calm Calm - N/A   Clear
1:55 AM 64.2 °F - 61.9 °F 92% 30.05 in 10.0 mi Calm Calm - N/A   Clear
2:15 AM 64.8 °F - 62.4 °F 92% 30.05 in 10.0 mi Calm Calm - N/A   Clear
2:35 AM 64.9 °F - 63.0 °F 93% 30.04 in 10.0 mi Calm Calm - N/A   Clear
2:55 AM 63.9 °F - 61.7 °F 93% 30.04 in 10.0 mi SE 3.5 mph - N/A   Clear
3:15 AM 63.3 °F - 61.0 °F 92% 30.04 in 10.0 mi Calm Calm - N/A   Clear
3:35 AM 63.7 °F - 61.7 °F 93% 30.03 in 10.0 mi Calm Calm - N/A   Clear
3:55 AM 63.7 °F - 61.5 °F 93% 30.03 in 10.0 mi ESE 3.5 mph - N/A   Clear
4:15 AM 63.7 °F - 61.7 °F 93% 30.04 in 10.0 mi Calm Calm - N/A   Clear
4:35 AM 62.8 °F - 60.6 °F 93% 30.05 in 10.0 mi Calm Calm - N/A   Clear
4:55 AM 63.5 °F - 61.5 °F 93% 30.05 in 10.0 mi Calm Calm - N/A   Clear
5:15 AM 62.6 °F - 60.4 °F 93% 30.06 in 7.0 mi Calm Calm - N/A   Clear
5:35 AM 62.6 °F - 60.8 °F 94% 30.07 in 10.0 mi Calm Calm - N/A   Clear
5:55 AM 61.2 °F - 59.5 °F 94% 30.07 in 5.0 mi Calm Calm - N/A   Clear
6:15 AM 62.8 °F - 61.2 °F 94% 30.08 in 5.0 mi Calm Calm - N/A   Clear
6:35 AM 63.7 °F - 61.9 °F 94% 30.08 in 7.0 mi Calm Calm - N/A   Clear
6:55 AM 65.3 °F - 63.3 °F 93% 30.10 in 7.0 mi Calm Calm - N/A   Clear
7:15 AM 67.3 °F - 64.8 °F 92% 30.10 in 7.0 mi Calm Calm - N/A   Clear
7:35 AM 68.4 °F - 65.3 °F 90% 30.10 in 10.0 mi Calm Calm - N/A   Clear
7:55 AM 70.5 °F - 66.0 °F 86% 30.10 in 10.0 mi Calm Calm - N/A   Clear
8:15 AM 72.9 °F - 65.5 °F 78% 30.10 in 10.0 mi Calm Calm - N/A   Clear
8:35 AM 74.7 °F - 64.9 °F 72% 30.10 in 10.0 mi SE 3.5 mph - N/A   Scattered Clouds
8:55 AM 76.8 °F - 64.4 °F 65% 30.08 in 10.0 mi SE 4.6 mph - N/A   Scattered Clouds
9:15 AM 79.3 °F - 63.3 °F 58% 30.08 in 10.0 mi SSE 5.8 mph - N/A   Clear
9:35 AM 80.6 °F 81.7 °F 61.9 °F 53% 30.05 in 10.0 mi SE 11.5 mph - N/A   Clear
9:55 AM 82.0 °F 82.2 °F 59.5 °F 46% 30.03 in 10.0 mi SSE 10.4 mph - N/A   Clear
10:15 AM 82.4 °F 82.5 °F 59.0 °F 45% 30.01 in 10.0 mi SE 13.8 mph 20.7 mph N/A   Clear
10:35 AM 82.9 °F 82.8 °F 58.8 °F 44% 30.02 in 10.0 mi SE 16.1 mph - N/A   Clear
10:55 AM 84.7 °F 84.0 °F 57.7 °F 40% 30.04 in 10.0 mi South 13.8 mph 18.4 mph N/A   Clear
11:15 AM 84.7 °F 84.0 °F 57.9 °F 40% 30.05 in 10.0 mi South 10.4 mph 18.4 mph N/A   Clear
11:35 AM 85.6 °F 84.5 °F 56.8 °F 37% 30.04 in 10.0 mi South 6.9 mph - N/A   Clear
11:55 AM 86.2 °F 85.4 °F 58.5 °F 39% 30.05 in 10.0 mi SSW 9.2 mph - N/A   Clear
12:15 PM 86.9 °F 85.9 °F 57.6 °F 37% 30.04 in 10.0 mi SSW 9.2 mph - N/A   Clear
12:35 PM 86.9 °F 85.1 °F 54.9 °F 33% 30.04 in 10.0 mi South 6.9 mph - N/A   Clear
12:55 PM 87.8 °F 86.1 °F 55.6 °F 33% 30.03 in 10.0 mi South 10.4 mph - N/A   Clear
1:15 PM 86.2 °F 85.0 °F 57.0 °F 37% 30.02 in 10.0 mi SSW 4.6 mph - N/A   Clear
1:35 PM 86.4 °F 85.2 °F 57.4 °F 37% 30.02 in 10.0 mi West 4.6 mph - N/A   Clear
1:55 PM 86.5 °F 85.3 °F 56.7 °F 36% 30.02 in 10.0 mi SW 3.5 mph - N/A   Clear
2:15 PM 88.2 °F 87.1 °F 57.9 °F 36% 30.02 in 10.0 mi SW 6.9 mph - N/A   Clear
2:35 PM 87.8 °F 85.9 °F 54.7 °F 32% 30.01 in 10.0 mi SW 5.8 mph - N/A   Clear
2:55 PM 87.8 °F 85.9 °F 54.7 °F 32% 30.01 in 10.0 mi SW 3.5 mph - N/A   Clear
3:15 PM 88.7 °F 86.7 °F 54.5 °F 31% 30.01 in 10.0 mi SSW 4.6 mph - N/A   Clear
3:35 PM 89.6 °F 87.5 °F 54.5 °F 30% 30.01 in 10.0 mi Calm Calm - N/A   Clear
3:55 PM 89.6 °F 87.9 °F 56.1 °F 32% 30.00 in 10.0 mi WSW 3.5 mph - N/A   Clear
4:15 PM 89.8 °F 88.1 °F 56.5 °F 32% 30.00 in 10.0 mi South 4.6 mph - N/A   Clear
4:35 PM 90.0 °F 87.9 °F 54.5 °F 30% 29.99 in 10.0 mi South 5.8 mph - N/A   Clear
4:55 PM 90.0 °F 87.5 °F 53.1 °F 28% 29.99 in 10.0 mi South 6.9 mph - N/A   Clear
5:15 PM 89.4 °F 87.3 °F 54.1 °F 30% 29.99 in 10.0 mi South 3.5 mph - N/A   Clear
5:35 PM 89.2 °F 87.7 °F 56.7 °F 33% 29.98 in 10.0 mi South 8.1 mph - N/A   Clear
5:55 PM 88.5 °F 87.5 °F 58.6 °F 36% 29.98 in 10.0 mi SSW 4.6 mph - N/A   Clear
6:15 PM 88.2 °F 86.9 °F 57.4 °F 35% 29.99 in 10.0 mi SSE 4.6 mph - N/A   Clear
6:35 PM 87.1 °F 85.9 °F 57.4 °F 36% 29.98 in 10.0 mi South 8.1 mph - N/A   Clear
6:55 PM 85.8 °F 85.0 °F 58.5 °F 39% 29.99 in 10.0 mi SSW 6.9 mph - N/A   Clear
7:15 PM 82.4 °F 83.0 °F 61.3 °F 49% 29.99 in 10.0 mi SSW 5.8 mph - N/A   Clear
7:35 PM 81.7 °F 82.9 °F 62.8 °F 53% 29.97 in 10.0 mi South 6.9 mph - N/A   Clear
7:55 PM 80.2 °F 81.8 °F 63.9 °F 57% 29.97 in 10.0 mi South 8.1 mph - N/A   Clear
8:15 PM 80.6 °F 81.8 °F 62.6 °F 54% 29.97 in 10.0 mi SSW 9.2 mph - N/A   Clear
8:35 PM 80.4 °F 81.6 °F 62.4 °F 54% 29.96 in 10.0 mi South 8.1 mph - N/A   Clear
8:55 PM 77.9 °F - 63.7 °F 61% 29.96 in 10.0 mi South 6.9 mph - N/A   Clear
9:15 PM 77.0 °F - 64.0 °F 64% 29.96 in 10.0 mi South 6.9 mph - N/A   Clear
9:35 PM 79.5 °F - 62.2 °F 55% 29.97 in 10.0 mi SSW 10.4 mph - N/A   Clear
9:55 PM 80.1 °F 81.2 °F 62.2 °F 54% 29.99 in 10.0 mi SSW 10.4 mph - N/A   Clear
10:15 PM 79.2 °F - 63.1 °F 58% 29.99 in 10.0 mi SSW 5.8 mph - N/A   Clear
10:35 PM 78.1 °F - 63.7 °F 61% 29.99 in 10.0 mi SSW 6.9 mph - N/A   Clear
10:55 PM 78.1 °F - 63.9 °F 61% 30.00 in 10.0 mi SSW 5.8 mph - N/A   Clear
11:15 PM 77.9 °F - 64.4 °F 63% 30.01 in 10.0 mi SW 4.6 mph - N/A   Clear
11:35 PM 76.6 °F - 64.9 °F 67% 30.01 in 10.0 mi SW 3.5 mph - N/A   Clear
11:55 PM 76.3 °F - 65.3 °F 69% 30.02 in 10.0 mi Calm Calm - N/A   Clear